Regional Weather Roundup
Issued by NWS

Home | Current Version | Previous Version | Graphics & Text | Print | Product List | Glossary Off
Versions: 1 2 3 4 5 6 7 8 9 10 11 12 13 14 15 16 17 18 19 20 21 22 23 24 25 26 27 28 29 30 31 32 33 34 35 36 37 38 39 40 41 42 43 44 45 46 47 48 49 50

000
ASUS43 KTOP 220208
RWRKS

WEATHER ROUNDUP FOR KANSAS
NATIONAL WEATHER SERVICE GOODLAND KS
800 PM CST FRI NOV 21 2014

NOTE:  "FAIR" INDICATES FEW OR NO CLOUDS BELOW 12,000 FEET WITH NO
SIGNIFICANT WEATHER AND/OR OBSTRUCTIONS TO VISIBILITY.

KSZ001>006-013>018-027>032-041>047-220300-
NORTHWEST KANSAS

CITY           SKY/WX    TMP DP  RH WIND       PRES   REMARKS
GOODLAND       CLEAR     43  28  55 SW8       29.94R
HAYS           CLOUDY    41  32  70 S8        30.00R
HILL CITY      CLEAR     35  31  85 E5        29.98S
RUSSELL        CLOUDY    38  37  97 S8        29.99S FOG
$$

KSZ061>065-074>080-084>089-220300-
SOUTHWEST KANSAS

CITY           SKY/WX    TMP DP  RH WIND       PRES   REMARKS
DODGE CITY     MOCLDY    35  33  92 S9        29.99S FOG
ELKHART          N/A    N/A N/A N/A MISG        N/A
GARDEN CITY    MOCLDY    38  34  85 S9        29.95S
GREAT BEND     CLOUDY    39  34  81 SE8       30.01F
LIBERAL        MOCLDY    45  32  61 E8        29.99S
PRATT          CLOUDY    37  37 100 SW5       30.03R FOG
$$

KSZ066>073-081>083-090>101-220300-
SOUTHEAST KANSAS

CITY           SKY/WX    TMP DP  RH WIND       PRES   REMARKS
CHANUTE        CLOUDY    54  51  90 SE12      30.07S
COFFEYVILLE    LGT RAIN  53  51  93 S14       30.08F
HUTCHINSON     FOG       41  39  93 CALM      30.03S VSB 1/4
MEDICINE LODGE   N/A     40  40 100 CALM      30.03S
NEWTON         CLOUDY    43  39  87 S3        30.05R VSB 1/2
PARSONS        CLOUDY    54  52  93 S10G18    30.09R
WICHITA INTL   FOG       45  44  97 SW5       30.03S VSB 1/4
WICHITA JABRA  CLOUDY    45  45 100 S3        30.03S FOG
WICHITA MCCONL FOG       46  46 100 S3        30.03S VSB 3/4
WINFIELD       FOG       47  47 100 CALM      30.05S VSB 3/4
$$

KSZ007>012-019>026-033>040-048>060-102>105-220300-
NORTHEAST KANSAS

CITY           SKY/WX    TMP DP  RH WIND       PRES   REMARKS
CONCORDIA      CLOUDY    35  35 100 CALM      30.02S FOG
EMPORIA        FOG       41  41 100 CALM      30.04S VSB 1/4
LAWRENCE       CLOUDY    43  39  86 E7        30.06F
MANHATTAN      FOG       36  36 100 NE3       30.05F VSB 1/4
MARYSVILLE     FOG       36  36 100 S6        30.03F VSB 1/2
OLATHE IND     CLOUDY    45  41  86 SE10      30.07S
OLATHE EXE     CLOUDY    45  41  86 SE9       30.06F
SALINA         FOG       39  38  96 SE6       30.03F VSB 1/4
TOPEKA BILLARD CLOUDY    41  39  93 CALM      30.06F FOG
TOPEKA FORBES  CLOUDY    42  40  92 CALM      30.05S FOG
$$



USA.gov is the U.S. government's official web portal to all federal, state and local government web resources and services.